| time (UTC) | temp C | wind direction | speed KPH | gust KPH | rain 1hr cm | rain 24hr cm | rain mn cm | humidity % | barometer mb |
| 20260506192529 | 16 | 357 | 0.0 | 4.8 | 0.00 | 0.71 | 0.71 | 99 | 1006.4 |
| 20260506192025 | 16 | 40 | 1.6 | 4.8 | 0.00 | 0.71 | 0.71 | 99 | 1006.7 |
| 20260506191522 | 16 | 81 | 1.6 | 4.8 | 0.00 | 0.71 | 0.71 | 99 | 1006.5 |
| 20260506191018 | 16 | 151 | 3.2 | 6.4 | 0.00 | 0.71 | 0.71 | 99 | 1006.5 |
| 20260506190515 | 16 | 235 | 3.2 | 6.4 | 0.13 | 0.71 | 0.71 | 99 | 1006.6 |
| 20260506190012 | 16 | 328 | 0.0 | 1.6 | 0.13 | 0.71 | 0.71 | 99 | 1006.4 |
| 20260506185510 | 16 | 42 | 1.6 | 4.8 | 0.00 | 0.69 | 0.69 | 99 | 1006.5 |
| 20260506185006 | 16 | 168 | 6.4 | 12.9 | 0.00 | 0.69 | 0.69 | 99 | 1006.7 |
| 20260506184503 | 16 | 109 | 3.2 | 6.4 | 0.18 | 0.69 | 0.69 | 99 | 1006.7 |
| 20260506184000 | 16 | 129 | 3.2 | 4.8 | 0.18 | 0.69 | 0.69 | 99 | 1006.6 |
| 20260506183456 | 16 | 206 | 1.6 | 6.4 | 0.00 | 0.66 | 0.66 | 99 | 1006.8 |
| 20260506182953 | 16 | 211 | 3.2 | 6.4 | 0.00 | 0.66 | 0.66 | 99 | 1006.8 |
| 20260506182450 | 16 | 25 | 1.6 | 1.6 | 0.00 | 0.66 | 0.66 | 99 | 1006.6 |
| 20260506181947 | 16 | 195 | 3.2 | 9.7 | 0.13 | 0.66 | 0.66 | 99 | 1006.6 |
| 20260506181445 | 16 | 306 | 1.6 | 4.8 | 0.13 | 0.66 | 0.66 | 99 | 1006.8 |
| 20260506180941 | 16 | 104 | 4.8 | 12.9 | 0.18 | 0.64 | 0.64 | 99 | 1006.9 |
| 20260506180437 | 16 | 203 | 1.6 | 4.8 | 0.18 | 0.64 | 0.64 | 99 | 1006.8 |
| 20260506175929 | 16 | 181 | 3.2 | 4.8 | 0.18 | 0.61 | 0.61 | 99 | 1007.0 |
| 20260506175426 | 16 | 71 | 0.0 | 0.0 | 0.00 | 0.58 | 0.58 | 99 | 1007.0 |
| 20260506174923 | 16 | 353 | 1.6 | 3.2 | 0.00 | 0.58 | 0.58 | 99 | 1007.0 |
| 20260506174421 | 16 | 190 | 1.6 | 6.4 | 0.00 | 0.58 | 0.58 | 99 | 1007.0 |
| 20260506173917 | 16 | 155 | 3.2 | 9.7 | 0.13 | 0.58 | 0.58 | 99 | 1006.9 |
| 20260506173414 | 16 | 74 | 3.2 | 4.8 | 0.13 | 0.58 | 0.58 | 99 | 1006.9 |
| 20260506172911 | 16 | 13 | 3.2 | 11.3 | 0.00 | 0.56 | 0.56 | 99 | 1007.0 |
| 20260506172408 | 16 | 142 | 4.8 | 9.7 | 0.00 | 0.56 | 0.56 | 99 | 1006.9 |
| 20260506171905 | 16 | 184 | 6.4 | 14.5 | 0.18 | 0.56 | 0.56 | 99 | 1006.9 |
| 20260506171402 | 16 | 123 | 3.2 | 11.3 | 0.00 | 0.53 | 0.53 | 99 | 1007.0 |
| 20260506170900 | 16 | 21 | 0.0 | 3.2 | 0.13 | 0.53 | 0.53 | 99 | 1007.0 |
| 20260506170355 | 15 | 68 | 3.2 | 4.8 | 0.00 | 0.51 | 0.51 | 99 | 1007.1 |
| 20260506165849 | 15 | 168 | 3.2 | 9.7 | 0.00 | 0.51 | 0.51 | 99 | 1007.2 |
| 20260506165347 | 15 | 177 | 3.2 | 11.3 | 0.18 | 0.51 | 0.51 | 99 | 1007.3 |
| 20260506164843 | 15 | 11 | 0.0 | 4.8 | 0.30 | 0.51 | 0.51 | 99 | 1007.5 |
| 20260506164339 | 15 | 301 | 3.2 | 4.8 | 0.13 | 0.48 | 0.48 | 99 | 1007.5 |
| 20260506163838 | 14 | 16 | 0.0 | 3.2 | 0.18 | 0.46 | 0.46 | 99 | 1007.5 |
| 20260506163332 | 14 | 32 | 0.0 | 1.6 | 0.18 | 0.46 | 0.46 | 99 | 1007.6 |
| 20260506162827 | 14 | 10 | 0.0 | 0.0 | 0.00 | 0.43 | 0.43 | 99 | 1007.8 |
| 20260506162325 | 13 | 27 | 0.0 | 0.0 | 0.13 | 0.43 | 0.43 | 99 | 1007.7 |
| 20260506161823 | 13 | 14 | 0.0 | 0.0 | 0.30 | 0.43 | 0.43 | 99 | 1007.8 |
| 20260506161319 | 13 | 40 | 0.0 | 0.0 | 0.30 | 0.41 | 0.41 | 99 | 1007.9 |
| 20260506160812 | 13 | 43 | 0.0 | 0.0 | 0.13 | 0.38 | 0.38 | 99 | 1007.9 |
| 20260506160308 | 13 | 44 | 0.0 | 0.0 | 0.18 | 0.36 | 0.36 | 99 | 1008.0 |
| 20260506155807 | 13 | 31 | 0.0 | 1.6 | 0.13 | 0.33 | 0.33 | 99 | 1008.0 |
| 20260506155306 | 13 | 28 | 0.0 | 0.0 | 0.30 | 0.33 | 0.33 | 99 | 1008.3 |
| 20260506153416 | 13 | 7 | 0.0 | 0.0 | 0.30 | 0.25 | 0.25 | 99 | 1008.6 |
| 20260506152913 | 13 | 5 | 0.0 | 0.0 | 0.18 | 0.23 | 0.23 | 99 | 1008.6 |
| 20260506152410 | 13 | 12 | 0.0 | 0.0 | 0.00 | 0.20 | 0.20 | 98 | 1008.5 |
| 20260506151909 | 13 | 10 | 0.0 | 0.0 | 0.13 | 0.20 | 0.20 | 98 | 1008.5 |
| 20260506151405 | 13 | 11 | 0.0 | 0.0 | 0.00 | 0.18 | 0.18 | 98 | 1008.5 |
| 20260506150903 | 13 | 1 | 0.0 | 0.0 | 0.18 | 0.18 | 0.18 | 98 | 1008.5 |
| 20260506150359 | 13 | 0 | 0.0 | 0.0 | 0.18 | 0.18 | 0.18 | 98 | 1008.6 |
| 20260506145856 | 13 | 0 | 0.0 | 0.0 | 0.13 | 0.15 | 0.15 | 98 | 1008.9 |
| 20260506145352 | 13 | 359 | 0.0 | 0.0 | 0.13 | 0.15 | 0.15 | 98 | 1008.9 |
| 20260506144850 | 13 | 359 | 0.0 | 0.0 | 0.18 | 0.13 | 0.13 | 98 | 1009.0 |
| 20260506144346 | 13 | 359 | 0.0 | 0.0 | 0.18 | 0.13 | 0.13 | 97 | 1009.1 |
| 20260506143844 | 12 | 358 | 0.0 | 0.0 | 0.13 | 0.10 | 0.10 | 97 | 1009.0 |
| 20260506143341 | 13 | 358 | 0.0 | 0.0 | 0.30 | 0.10 | 0.10 | 97 | 1009.2 |
| 20260506142839 | 13 | 358 | 0.0 | 0.0 | 0.30 | 0.08 | 0.08 | 97 | 1009.4 |
| 20260506142337 | 13 | 358 | 0.0 | 0.0 | 0.13 | 0.05 | 0.05 | 97 | 1009.2 |
| 20260506141835 | 13 | 358 | 0.0 | 0.0 | 0.18 | 0.03 | 0.03 | 96 | 1009.3 |
| 20260506141333 | 13 | 356 | 0.0 | 0.0 | 0.18 | 0.03 | 0.03 | 96 | 1009.4 |
| 20260506140831 | 13 | 358 | 0.0 | 0.0 | 0.00 | 0.00 | 0.00 | 95 | 1009.4 |
| 20260506140327 | 13 | 358 | 0.0 | 0.0 | 0.00 | 0.00 | 0.00 | 95 | 1009.2 |
| 20260506135824 | 13 | 357 | 0.0 | 0.0 | 0.00 | 0.00 | 0.00 | 94 | 1009.2 |
| 20260506135321 | 13 | 358 | 0.0 | 0.0 | 0.00 | 0.00 | 0.00 | 94 | 1009.2 |
| 20260506134817 | 13 | 358 | 0.0 | 0.0 | 0.00 | 0.00 | 0.00 | 94 | 1009.3 |
| 20260506134314 | 13 | 358 | 0.0 | 0.0 | 0.00 | 0.00 | 0.00 | 94 | 1009.1 |
| 20260506133811 | 13 | 356 | 0.0 | 0.0 | 0.00 | 0.00 | 0.00 | 95 | 1009.0 |
| 20260506133308 | 13 | 351 | 0.0 | 0.0 | 0.00 | 0.00 | 0.00 | 95 | 1009.1 |
| 20260506132804 | 13 | 10 | 0.0 | 0.0 | 0.00 | 0.00 | 0.00 | 94 | 1009.3 |
| 20260506132302 | 13 | 11 | 0.0 | 0.0 | 0.00 | 0.00 | 0.00 | 93 | 1009.0 |
| 20260506131800 | 13 | 11 | 0.0 | 0.0 | 0.00 | 0.00 | 0.00 | 93 | 1008.9 |
| 20260506131255 | 13 | 1 | 0.0 | 0.0 | 0.00 | 0.00 | 0.00 | 93 | 1008.8 |
| 20260506130752 | 13 | 26 | 0.0 | 0.0 | 0.00 | 0.00 | 0.00 | 93 | 1008.9 |
| 20260506130249 | 13 | 11 | 0.0 | 0.0 | 0.00 | 0.00 | 0.00 | 94 | 1009.1 |
| 20260506125747 | 13 | 11 | 0.0 | 0.0 | 0.00 | 0.00 | 0.00 | 94 | 1009.1 |
| 20260506125245 | 13 | 12 | 0.0 | 0.0 | 0.00 | 0.00 | 0.00 | 94 | 1009.0 |
| 20260506124743 | 13 | 11 | 0.0 | 0.0 | 0.00 | 0.00 | 0.00 | 95 | 1009.0 |
| 20260506124240 | 12 | 9 | 0.0 | 0.0 | 0.00 | 0.00 | 0.00 | 95 | 1009.1 |
| 20260506123737 | 12 | 15 | 1.6 | 1.6 | 0.00 | 0.00 | 0.00 | 95 | 1009.2 |
| 20260506123237 | 12 | 358 | 0.0 | 1.6 | 0.00 | 0.00 | 0.00 | 96 | 1009.2 |
| 20260506122732 | 12 | 340 | 0.0 | 1.6 | 0.00 | 0.00 | 0.00 | 96 | 1009.5 |
| 20260506122230 | 12 | 353 | 3.2 | 6.4 | 0.00 | 0.00 | 0.00 | 97 | 1009.5 |
| 20260506121728 | 12 | 350 | 0.0 | 0.0 | 0.00 | 0.00 | 0.00 | 98 | 1009.9 |
| 20260506121225 | 12 | 343 | 3.2 | 3.2 | 0.00 | 0.00 | 0.00 | 98 | 1010.1 |
| 20260506120722 | 12 | 354 | 0.0 | 1.6 | 0.00 | 0.00 | 0.00 | 99 | 1010.0 |
| 20260506120219 | 12 | 334 | 0.0 | 4.8 | 0.00 | 0.00 | 0.00 | 99 | 1009.7 |
| 20260506115717 | 12 | 349 | 0.0 | 0.0 | 0.00 | 0.00 | 0.00 | 99 | 1009.7 |
| 20260506115215 | 12 | 339 | 4.8 | 6.4 | 0.00 | 0.00 | 0.00 | 99 | 1009.7 |
| 20260506114713 | 12 | 359 | 0.0 | 1.6 | 0.00 | 0.00 | 0.00 | 99 | 1009.7 |
| 20260506114210 | 12 | 2 | 0.0 | 0.0 | 0.00 | 0.00 | 0.00 | 99 | 1009.6 |
| 20260506113708 | 12 | 2 | 0.0 | 0.0 | 0.00 | 0.00 | 0.00 | 99 | 1009.5 |
| 20260506113205 | 11 | 1 | 0.0 | 1.6 | 0.00 | 0.00 | 0.00 | 99 | 1009.2 |
| 20260506112701 | 11 | 13 | 0.0 | 0.0 | 0.00 | 0.00 | 0.00 | 99 | 1009.4 |
| 20260506112159 | 11 | 13 | 0.0 | 0.0 | 0.00 | 0.00 | 0.00 | 99 | 1009.2 |
| 20260506111657 | 11 | 9 | 0.0 | 0.0 | 0.00 | 0.00 | 0.00 | 99 | 1009.0 |
| 20260506111154 | 11 | 8 | 0.0 | 0.0 | 0.00 | 0.00 | 0.00 | 99 | 1009.6 |
| 20260506110651 | 11 | 9 | 0.0 | 0.0 | 0.00 | 0.00 | 0.00 | 99 | 1009.3 |
| 20260506110149 | 11 | 9 | 0.0 | 0.0 | 0.00 | 0.00 | 0.00 | 99 | 1009.1 |
| 20260506105645 | 11 | 10 | 0.0 | 1.6 | 0.00 | 0.00 | 0.00 | 99 | 1008.9 |
| 20260506105142 | 11 | 356 | 3.2 | 3.2 | 0.00 | 0.00 | 0.00 | 99 | 1009.0 |
| 20260506104641 | 11 | 8 | 0.0 | 0.0 | 0.00 | 0.00 | 0.00 | 99 | 1009.5 |
| 20260506104138 | 11 | 8 | 0.0 | 0.0 | 0.00 | 0.00 | 0.00 | 99 | 1009.0 |
| 20260506103635 | 11 | 8 | 0.0 | 0.0 | 0.00 | 0.00 | 0.00 | 99 | 1009.2 |
| 20260506103132 | 11 | 5 | 0.0 | 0.0 | 0.00 | 0.00 | 0.00 | 99 | 1009.3 |
| 20260506102630 | 11 | 11 | 0.0 | 0.0 | 0.00 | 0.00 | 0.00 | 99 | 1009.2 |
| 20260506102127 | 11 | 11 | 0.0 | 0.0 | 0.00 | 0.00 | 0.00 | 99 | 1009.2 |
| 20260506101623 | 11 | 11 | 0.0 | 0.0 | 0.00 | 0.00 | 0.00 | 99 | 1008.8 |
| 20260506101120 | 11 | 10 | 0.0 | 0.0 | 0.00 | 0.00 | 0.00 | 99 | 1009.0 |
| 20260506100619 | 11 | 11 | 0.0 | 0.0 | 0.00 | 0.00 | 0.00 | 99 | 1008.9 |
| 20260506100116 | 11 | 10 | 0.0 | 0.0 | 0.00 | 0.00 | 0.00 | 99 | 1009.0 |
| 20260506095615 | 11 | 10 | 0.0 | 0.0 | 0.00 | 0.00 | 0.00 | 99 | 1009.0 |
| 20260506095111 | 11 | 11 | 0.0 | 0.0 | 0.00 | 0.00 | 0.00 | 99 | 1008.9 |
| 20260506094609 | 11 | 11 | 0.0 | 0.0 | 0.00 | 0.00 | 0.00 | 99 | 1009.2 |
| 20260506094106 | 11 | 10 | 0.0 | 0.0 | 0.00 | 0.00 | 0.00 | 99 | 1009.1 |
| 20260506093605 | 11 | 10 | 0.0 | 0.0 | 0.00 | 0.00 | 0.00 | 99 | 1009.0 |
| 20260506093102 | 11 | 10 | 0.0 | 0.0 | 0.00 | 0.00 | 0.00 | 99 | 1009.0 |
| 20260506092559 | 11 | 10 | 0.0 | 0.0 | 0.00 | 0.00 | 0.00 | 99 | 1008.7 |
| 20260506092056 | 11 | 10 | 0.0 | 0.0 | 0.00 | 0.00 | 0.00 | 99 | 1008.7 |
| 20260506091554 | 10 | 10 | 0.0 | 0.0 | 0.00 | 0.00 | 0.00 | 99 | 1008.6 |
| 20260506091052 | 11 | 10 | 0.0 | 0.0 | 0.00 | 0.00 | 0.00 | 99 | 1008.9 |
| 20260506090549 | 11 | 10 | 0.0 | 0.0 | 0.00 | 0.00 | 0.00 | 99 | 1009.0 |
| 20260506090045 | 11 | 10 | 0.0 | 0.0 | 0.00 | 0.00 | 0.00 | 99 | 1009.0 |
| 20260506085542 | 11 | 10 | 0.0 | 0.0 | 0.00 | 0.00 | 0.00 | 99 | 1009.0 |
| 20260506085038 | 11 | 10 | 0.0 | 0.0 | 0.00 | 0.00 | 0.00 | 99 | 1008.9 |
| 20260506084536 | 11 | 10 | 0.0 | 0.0 | 0.00 | 0.00 | 0.00 | 99 | 1009.1 |
| 20260506084032 | 11 | 10 | 0.0 | 0.0 | 0.00 | 0.00 | 0.00 | 99 | 1009.3 |
| 20260506083529 | 11 | 10 | 0.0 | 0.0 | 0.00 | 0.00 | 0.00 | 99 | 1009.4 |
| 20260506083026 | 11 | 10 | 0.0 | 0.0 | 0.00 | 0.00 | 0.00 | 99 | 1009.3 |
| 20260506082523 | 11 | 10 | 0.0 | 0.0 | 0.00 | 0.00 | 0.00 | 99 | 1009.5 |
| 20260506082019 | 11 | 10 | 0.0 | 0.0 | 0.00 | 0.00 | 0.00 | 98 | 1009.5 |
| 20260506081517 | 11 | 10 | 0.0 | 1.6 | 0.00 | 0.00 | 0.00 | 98 | 1009.4 |
| 20260506081014 | 11 | 10 | 0.0 | 0.0 | 0.00 | 0.00 | 0.00 | 98 | 1009.7 |
| 20260506080512 | 11 | 10 | 0.0 | 0.0 | 0.00 | 0.00 | 0.00 | 98 | 1009.4 |
| 20260506073455 | 12 | 11 | 0.0 | 0.0 | 0.00 | 0.00 | 0.00 | 97 | 1009.9 |
| 20260506072952 | 12 | 10 | 0.0 | 0.0 | 0.00 | 0.00 | 0.00 | 97 | 1009.8 |
| 20260506072449 | 12 | 10 | 0.0 | 0.0 | 0.00 | 0.00 | 0.00 | 97 | 1010.1 |
| 20260506071947 | 12 | 11 | 0.0 | 0.0 | 0.00 | 0.00 | 0.00 | 97 | 1010.0 |
| 20260506071445 | 12 | 11 | 0.0 | 0.0 | 0.00 | 0.00 | 0.00 | 97 | 1010.0 |
| 20260506070942 | 12 | 11 | 0.0 | 0.0 | 0.00 | 0.00 | 0.00 | 96 | 1010.0 |
| 20260506070439 | 12 | 11 | 0.0 | 0.0 | 0.00 | 0.00 | 0.00 | 96 | 1010.0 |
| 20260506062416 | 12 | 359 | 0.0 | 0.0 | 0.00 | 0.00 | 0.00 | 94 | 1010.5 |
| 20260506061912 | 13 | 358 | 0.0 | 0.0 | 0.00 | 0.00 | 0.00 | 94 | 1010.5 |
| 20260506061409 | 13 | 359 | 0.0 | 0.0 | 0.00 | 0.00 | 0.00 | 92 | 1010.3 |
| 20260506060907 | 13 | 359 | 0.0 | 0.0 | 0.00 | 0.00 | 0.00 | 91 | 1010.5 |
| 20260506060404 | 13 | 359 | 0.0 | 0.0 | 0.00 | 0.00 | 0.00 | 90 | 1010.5 |
| 20260506051336 | 15 | 359 | 1.6 | 4.8 | 0.00 | 0.00 | 0.00 | 84 | 1010.8 |
| 20260506050834 | 14 | 330 | 4.8 | 6.4 | 0.00 | 0.00 | 0.00 | 85 | 1010.4 |
| 20260506050331 | 15 | 329 | 3.2 | 6.4 | 0.00 | 0.00 | 0.00 | 83 | 1010.5 |
| 20260506044822 | 15 | 355 | 1.6 | 3.2 | 0.00 | 0.00 | 0.00 | 84 | 1010.6 |
| 20260506044320 | 15 | 356 | 0.0 | 4.8 | 0.00 | 0.00 | 0.00 | 84 | 1010.5 |
| 20260506043816 | 15 | 4 | 3.2 | 6.4 | 0.00 | 0.00 | 0.00 | 85 | 1010.7 |
| 20260506043314 | 15 | 356 | 1.6 | 4.8 | 0.00 | 0.00 | 0.00 | 85 | 1010.5 |
| 20260506042812 | 15 | 352 | 6.4 | 12.9 | 0.00 | 0.00 | 0.00 | 85 | 1010.5 |
| 20260506042311 | 15 | 1 | 3.2 | 9.7 | 0.00 | 0.00 | 0.00 | 86 | 1010.5 |
| 20260506041809 | 15 | 344 | 9.7 | 12.9 | 0.00 | 0.00 | 0.00 | 88 | 1010.5 |
| 20260506041305 | 15 | 338 | 3.2 | 9.7 | 0.00 | 0.00 | 0.00 | 88 | 1010.4 |
| 20260506040803 | 15 | 326 | 6.4 | 11.3 | 0.00 | 0.00 | 0.00 | 88 | 1010.5 |
| 20260506040300 | 15 | 312 | 8.0 | 9.7 | 0.00 | 0.00 | 0.00 | 90 | 1010.4 |
| 20260506035756 | 15 | 334 | 8.0 | 12.9 | 0.00 | 0.20 | 0.20 | 93 | 1010.0 |
| 20260506035253 | 15 | 311 | 6.4 | 6.4 | 0.00 | 0.20 | 0.20 | 96 | 1010.0 |
| 20260506034750 | 15 | 347 | 3.2 | 9.7 | 0.00 | 0.20 | 0.20 | 98 | 1010.0 |
| 20260506034248 | 15 | 334 | 6.4 | 6.4 | 0.00 | 0.20 | 0.20 | 99 | 1010.2 |
| 20260506033744 | 15 | 343 | 1.6 | 9.7 | 0.00 | 0.20 | 0.20 | 99 | 1010.0 |
| 20260506033242 | 15 | 8 | 3.2 | 4.8 | 0.00 | 0.20 | 0.20 | 99 | 1009.8 |
| 20260506032738 | 15 | 35 | 0.0 | 0.0 | 0.00 | 0.20 | 0.20 | 99 | 1010.0 |
| 20260506032235 | 15 | 37 | 0.0 | 0.0 | 0.00 | 0.20 | 0.20 | 99 | 1009.5 |
| 20260506031732 | 15 | 17 | 1.6 | 3.2 | 0.00 | 0.20 | 0.20 | 99 | 1009.5 |
| 20260506031229 | 15 | 3 | 3.2 | 3.2 | 0.00 | 0.20 | 0.20 | 99 | 1009.3 |
| 20260506030728 | 15 | 345 | 3.2 | 3.2 | 0.00 | 0.20 | 0.20 | 99 | 1009.5 |
| 20260506030225 | 16 | 41 | 0.0 | 0.0 | 0.00 | 0.20 | 0.20 | 99 | 1009.4 |
| 20260506025722 | 16 | 42 | 1.6 | 3.2 | 0.13 | 0.20 | 0.20 | 99 | 1009.4 |
| 20260506025218 | 15 | 18 | 0.0 | 0.0 | 0.30 | 0.20 | 0.20 | 99 | 1009.7 |
| 20260506024715 | 15 | 359 | 0.0 | 0.0 | 0.18 | 0.18 | 0.18 | 99 | 1009.9 |
| 20260506024211 | 16 | 6 | 0.0 | 0.0 | 0.00 | 0.15 | 0.15 | 98 | 1010.2 |
| 20260506023708 | 16 | 21 | 0.0 | 0.0 | 0.00 | 0.15 | 0.15 | 98 | 1009.5 |
| 20260506023205 | 16 | 21 | 0.0 | 0.0 | 0.18 | 0.15 | 0.15 | 98 | 1009.3 |
| 20260506022702 | 16 | 21 | 0.0 | 0.0 | 0.48 | 0.15 | 0.15 | 97 | 1009.1 |
| 20260506022200 | 16 | 24 | 0.0 | 0.0 | 0.43 | 0.13 | 0.13 | 97 | 1009.3 |
| 20260506021657 | 16 | 14 | 0.0 | 0.0 | 0.18 | 0.05 | 0.05 | 97 | 1009.6 |
| 20260506021154 | 16 | 14 | 0.0 | 0.0 | 0.18 | 0.05 | 0.05 | 96 | 1009.4 |
| 20260506020651 | 16 | 20 | 0.0 | 0.0 | 0.00 | 0.03 | 0.03 | 95 | 1009.4 |
| 20260506020149 | 16 | 20 | 0.0 | 0.0 | 0.00 | 0.03 | 0.03 | 95 | 1009.2 |
| 20260506015646 | 16 | 20 | 0.0 | 0.0 | 0.00 | 0.03 | 0.03 | 94 | 1009.3 |
| 20260506015143 | 16 | 20 | 0.0 | 0.0 | 0.00 | 0.03 | 0.03 | 94 | 1009.2 |
| 20260506014635 | 16 | 20 | 0.0 | 0.0 | 0.00 | 0.03 | 0.03 | 93 | 1009.2 |
| 20260506014130 | 16 | 19 | 0.0 | 0.0 | 0.00 | 0.03 | 0.03 | 92 | 1009.3 |
| 20260506013629 | 16 | 19 | 0.0 | 0.0 | 0.00 | 0.03 | 0.03 | 92 | 1009.1 |
| 20260506013126 | 16 | 19 | 0.0 | 0.0 | 0.00 | 0.03 | 0.03 | 92 | 1009.5 |
| 20260506012622 | 16 | 20 | 0.0 | 0.0 | 0.00 | 0.03 | 0.03 | 92 | 1009.3 |
| 20260506012118 | 16 | 19 | 0.0 | 0.0 | 0.00 | 0.03 | 0.03 | 91 | 1009.1 |
| 20260506011616 | 16 | 33 | 0.0 | 0.0 | 0.00 | 0.03 | 0.03 | 91 | 1009.0 |
| 20260506011112 | 16 | 33 | 0.0 | 0.0 | 0.00 | 0.03 | 0.03 | 90 | 1009.2 |
| 20260506010611 | 16 | 33 | 0.0 | 0.0 | 0.00 | 0.03 | 0.03 | 89 | 1009.0 |
| 20260506005559 | 17 | 36 | 0.0 | 0.0 | 0.00 | 0.03 | 0.03 | 88 | 1008.8 |
| 20260506005055 | 17 | 36 | 0.0 | 0.0 | 0.00 | 0.03 | 0.03 | 89 | 1008.8 |
| 20260506004553 | 17 | 36 | 0.0 | 0.0 | 0.00 | 0.03 | 0.03 | 88 | 1008.8 |
| 20260506004049 | 17 | 38 | 0.0 | 1.6 | 0.00 | 0.03 | 0.03 | 87 | 1008.9 |
| 20260506003545 | 17 | 340 | 0.0 | 1.6 | 0.00 | 0.03 | 0.03 | 88 | 1008.9 |
| 20260506003042 | 17 | 339 | 0.0 | 1.6 | 0.00 | 0.03 | 0.03 | 87 | 1008.6 |
| 20260506002537 | 17 | 338 | 0.0 | 3.2 | 0.00 | 0.03 | 0.03 | 86 | 1008.5 |
| 20260506002033 | 17 | 11 | 1.6 | 1.6 | 0.00 | 0.03 | 0.03 | 84 | 1008.3 |
| 20260506001530 | 17 | 21 | 0.0 | 0.0 | 0.00 | 0.03 | 0.03 | 85 | 1008.2 |
| 20260506001022 | 17 | 348 | 0.0 | 1.6 | 0.00 | 0.03 | 0.03 | 85 | 1008.0 |
| 20260506000519 | 17 | 92 | 4.8 | 4.8 | 0.00 | 0.03 | 0.03 | 85 | 1008.0 |
| 20260506000017 | 17 | 39 | 0.0 | 0.0 | 0.00 | 0.03 | 0.03 | 86 | 1007.9 |
| 20260505235515 | 17 | 35 | 1.6 | 1.6 | 0.00 | 0.03 | 0.03 | 86 | 1008.1 |
| 20260505235011 | 17 | 34 | 0.0 | 0.0 | 0.00 | 0.03 | 0.03 | 87 | 1007.8 |
| 20260505234508 | 17 | 33 | 0.0 | 0.0 | 0.00 | 0.03 | 0.03 | 87 | 1008.0 |
| 20260505234005 | 17 | 33 | 0.0 | 1.6 | 0.00 | 0.03 | 0.03 | 87 | 1007.9 |
| 20260505233502 | 17 | 32 | 0.0 | 1.6 | 0.00 | 0.03 | 0.03 | 87 | 1007.8 |
| 20260505232959 | 17 | 9 | 0.0 | 0.0 | 0.00 | 0.03 | 0.03 | 85 | 1007.9 |
| 20260505232458 | 18 | 41 | 1.6 | 1.6 | 0.00 | 0.03 | 0.03 | 85 | 1007.8 |
| 20260505231954 | 18 | 26 | 0.0 | 0.0 | 0.00 | 0.03 | 0.03 | 84 | 1007.8 |
| 20260505231452 | 18 | 27 | 0.0 | 0.0 | 0.00 | 0.03 | 0.03 | 83 | 1007.5 |
| 20260505230950 | 18 | 27 | 0.0 | 0.0 | 0.00 | 0.03 | 0.03 | 83 | 1007.7 |
| 20260505230447 | 18 | 32 | 0.0 | 0.0 | 0.00 | 0.03 | 0.03 | 82 | 1007.6 |
| 20260505225943 | 18 | 53 | 3.2 | 4.8 | 0.00 | 0.03 | 0.03 | 81 | 1007.8 |
| 20260505225441 | 18 | 78 | 6.4 | 9.7 | 0.00 | 0.03 | 0.03 | 82 | 1007.8 |
| 20260505224936 | 18 | 34 | 0.0 | 0.0 | 0.00 | 0.03 | 0.03 | 84 | 1007.7 |
| 20260505224433 | 18 | 33 | 0.0 | 0.0 | 0.00 | 0.03 | 0.03 | 85 | 1007.8 |
| 20260505223931 | 18 | 81 | 3.2 | 3.2 | 0.00 | 0.03 | 0.03 | 83 | 1007.7 |
| 20260505223427 | 18 | 36 | 0.0 | 0.0 | 0.00 | 0.03 | 0.03 | 83 | 1007.9 |
| 20260505222924 | 18 | 35 | 0.0 | 3.2 | 0.00 | 0.03 | 0.03 | 80 | 1007.9 |
| 20260505222420 | 18 | 49 | 3.2 | 4.8 | 0.00 | 0.03 | 0.03 | 82 | 1007.6 |
| 20260505221916 | 18 | 26 | 0.0 | 0.0 | 0.00 | 0.03 | 0.03 | 80 | 1007.9 |
| 20260505221414 | 18 | 18 | 0.0 | 1.6 | 0.00 | 0.03 | 0.03 | 80 | 1008.0 |
| 20260505220911 | 18 | 350 | 3.2 | 11.3 | 0.00 | 0.03 | 0.03 | 80 | 1007.9 |
| 20260505220407 | 18 | 354 | 3.2 | 6.4 | 0.13 | 0.03 | 0.03 | 79 | 1007.7 |
| 20260505215905 | 19 | 323 | 6.4 | 11.3 | 0.00 | 0.00 | 0.00 | 77 | 1008.0 |
| 20260505215403 | 20 | 314 | 11.3 | 22.5 | 0.00 | 0.00 | 0.00 | 72 | 1007.5 |
| 20260505214901 | 20 | 332 | 8.0 | 12.9 | 0.00 | 0.00 | 0.00 | 69 | 1007.4 |
| 20260505214358 | 21 | 345 | 22.5 | 33.8 | 0.00 | 0.00 | 0.00 | 62 | 1007.1 |
| 20260505213855 | 23 | 333 | 12.9 | 17.7 | 0.00 | 0.00 | 0.00 | 54 | 1006.9 |
| 20260505213353 | 26 | 338 | 16.1 | 24.1 | 0.00 | 0.00 | 0.00 | 43 | 1006.4 |
| 20260505212849 | 26 | 331 | 3.2 | 3.2 | 0.00 | 0.00 | 0.00 | 37 | 1005.8 |
| 20260505212346 | 26 | 27 | 0.0 | 1.6 | 0.00 | 0.00 | 0.00 | 40 | 1005.5 |
| 20260505211842 | 26 | 1 | 0.0 | 1.6 | 0.00 | 0.00 | 0.00 | 38 | 1005.3 |
| 20260505211339 | 26 | 11 | 0.0 | 1.6 | 0.00 | 0.00 | 0.00 | 38 | 1005.3 |
| 20260505210830 | 26 | 21 | 0.0 | 1.6 | 0.00 | 0.00 | 0.00 | 37 | 1005.2 |
| 20260505210327 | 27 | 50 | 1.6 | 3.2 | 0.00 | 0.00 | 0.00 | 37 | 1005.1 |
| 20260505205824 | 27 | 313 | 1.6 | 9.7 | 0.00 | 0.00 | 0.00 | 36 | 1005.1 |
| 20260505205322 | 27 | 16 | 3.2 | 4.8 | 0.00 | 0.00 | 0.00 | 37 | 1005.0 |
| 20260505204819 | 27 | 195 | 8.0 | 9.7 | 0.00 | 0.00 | 0.00 | 36 | 1005.0 |
| 20260505204317 | 27 | 178 | 6.4 | 9.7 | 0.00 | 0.00 | 0.00 | 35 | 1004.9 |
| 20260505203814 | 27 | 179 | 1.6 | 4.8 | 0.00 | 0.00 | 0.00 | 36 | 1004.9 |
| 20260505203310 | 27 | 323 | 3.2 | 6.4 | 0.00 | 0.00 | 0.00 | 38 | 1004.5 |
| 20260505202807 | 27 | 170 | 8.0 | 16.1 | 0.00 | 0.00 | 0.00 | 35 | 1004.7 |
| 20260505202306 | 27 | 176 | 3.2 | 14.5 | 0.00 | 0.00 | 0.00 | 36 | 1004.6 |
| 20260505201759 | 27 | 344 | 1.6 | 4.8 | 0.00 | 0.00 | 0.00 | 36 | 1004.8 |
| 20260505201257 | 28 | 7 | 1.6 | 4.8 | 0.00 | 0.00 | 0.00 | 35 | 1004.9 |
| 20260505200755 | 30 | 131 | 4.8 | 6.4 | 0.00 | 0.00 | 0.00 | 30 | 1004.8 |
| 20260505200252 | 30 | 314 | 1.6 | 11.3 | 0.00 | 0.00 | 0.00 | 29 | 1005.3 |
| 20260505195747 | 30 | 8 | 1.6 | 6.4 | 0.00 | 0.00 | 0.00 | 30 | 1005.0 |
| 20260505195245 | 30 | 163 | 9.7 | 12.9 | 0.00 | 0.00 | 0.00 | 31 | 1004.9 |
| 20260505194742 | 30 | 94 | 1.6 | 6.4 | 0.00 | 0.00 | 0.00 | 33 | 1004.9 |
| 20260505194239 | 29 | 343 | 1.6 | 3.2 | 0.00 | 0.00 | 0.00 | 34 | 1005.1 |
| 20260505193734 | 28 | 241 | 3.2 | 9.7 | 0.00 | 0.00 | 0.00 | 36 | 1005.0 |
| 20260505193232 | 29 | 247 | 3.2 | 4.8 | 0.00 | 0.00 | 0.00 | 37 | 1005.0 |